This is the latest recevied weather packets stored in our database for station/object OIII. If no packets are shown the sender has not sent any weather packets the latest 1 day(s).
| Time | Temp. | Humidity | Pressure | Rain* | Wind** | Luminosity | Snow |
|---|---|---|---|---|---|---|---|
| 1778356429 | 21.67° C | 8% | 1016.6 hPa | - | - | - | - |
| 1778354032 | 21.67° C | 8% | 1016.6 hPa | - | - | - | - |
| 1778352225 | 22.78° C | 8% | 1016.3 hPa | - | - | - | - |
| 1778351626 | 22.78° C | 8% | 1016.3 hPa | - | - | - | - |
| 1778351030 | 22.78° C | 8% | 1016.3 hPa | - | - | - | - |
| 1778348031 | 22.78° C | 9% | 1015.6 hPa | - | - | - | - |
| 1778343230 | 23.89° C | 11% | 1014.9 hPa | - | - | - | - |
| 1778338434 | 25.56° C | 9% | 1014.2 hPa | - | - | - | - |
| 1778337226 | 25.56° C | 9% | 1014.2 hPa | - | - | - | - |
| 1778336629 | 25.56° C | 9% | 1014.2 hPa | - | - | - | - |
| 1778336026 | 25.56° C | 9% | 1014.2 hPa | - | - | - | - |
| 1778334826 | 26.67° C | 8% | 1014.2 hPa | - | - | - | - |
| 1778331228 | 26.67° C | 8% | 1014.9 hPa | - | - | - | - |
| 1778330628 | 26.67° C | 8% | 1014.9 hPa | - | - | - | - |
| 1778330031 | 26.67° C | 8% | 1014.9 hPa | - | - | - | - |
| 1778329427 | 26.67° C | 8% | 1014.9 hPa | - | - | - | - |
| 1778328829 | 26.67° C | 8% | 1014.9 hPa | - | - | - | - |
| 1778327625 | 26.67° C | 8% | 1015.2 hPa | - | - | - | - |
| 1778325228 | 26.67° C | 8% | 1015.2 hPa | - | - | - | - |
| 1778323432 | 26.67° C | 3% | 1015.6 hPa | - | - | - | - |
| 1778322229 | 26.67° C | 3% | 1015.6 hPa | - | - | - | - |
* Rain since midnight (hover to see other rain measurements)
** Current wind speed in m/s (hover to see current wind gust speed)